Tracking 19636 objects as of 24-May-2019
HD Live streaming from Space Station
objects crossing your sky now

IDEFIX/ARIANE 42P

Track IDEFIX/ARIANE 42P now!
10-day predictions
IDEFIX/ARIANE 42P is classified as:


NORAD ID: 27422
Int'l Code: 2002-021B
Perigee: 793.2 km
Apogee: 809.4 km
Inclination: 98.3 °
Period: 100.8 minutes
Semi major axis: 7172 km
RCS: 8.1333 m2 (large)
Launch date: May 4, 2002
Source: France (FR)
Launch site: FRENCH GUIANA (FRGUI)

Uplink (MHz):
Downlink (MHz): 145.840
Beacon (MHz):
Mode: 400bps BPSK
Call sign:
Status: Inactive


Uplink (MHz):
Downlink (MHz): 435.270
Beacon (MHz):
Mode: 400bps BPSK
Call sign:
Status: Inactive

aabbcc
Your satellite tracking list
Your tracking list is empty




NASA's NSSDC Master Catalog

Two Line Element Set (TLE):
1 27422U 02021B   19143.54450100 -.00000021  00000-0  78284-5 0  9997
2 27422  98.2983 117.0628 0011296 311.5758  48.4456 14.29271914887433
Source of the keplerian elements: AFSPC